TimeCDT,TemperatureF,Dew PointF,Humidity,Sea Level PressureIn,VisibilityMPH,Wind Direction,Wind SpeedMPH,Gust SpeedMPH,PrecipitationIn,Events,Conditions,WindDirDegrees,DateUTC
12:53 AM,21.0,16.0,81,30.35,10.0,NW,6.9,-,N/A,,Clear,320,2013-03-26 05:53:00
1:43 AM,21.2,17.6,86,30.30,10.0,NNW,10.4,-,N/A,,Mostly Cloudy,330,2013-03-26 06:43:00
1:53 AM,23.0,17.1,78,30.36,10.0,NNW,11.5,-,N/A,,Mostly Cloudy,330,2013-03-26 06:53:00
2:45 AM,21.2,15.8,80,30.29,10.0,NW,9.2,-,N/A,,Scattered Clouds,320,2013-03-26 07:45:00
2:53 AM,21.0,16.0,81,30.35,10.0,NW,9.2,-,N/A,,Partly Cloudy,320,2013-03-26 07:53:00
3:53 AM,19.9,15.1,81,30.35,10.0,WNW,9.2,-,N/A,,Clear,300,2013-03-26 08:53:00
4:53 AM,18.0,14.0,84,30.34,10.0,WNW,8.1,-,N/A,,Clear,290,2013-03-26 09:53:00
5:53 AM,18.0,12.9,81,30.35,10.0,WNW,10.4,-,N/A,,Clear,300,2013-03-26 10:53:00
6:53 AM,17.1,12.0,81,30.36,10.0,WNW,9.2,-,N/A,,Clear,300,2013-03-26 11:53:00
7:53 AM,18.0,12.9,81,30.37,10.0,WNW,10.4,-,N/A,,Clear,300,2013-03-26 12:53:00
8:53 AM,21.0,15.1,78,30.38,10.0,NW,11.5,-,N/A,,Clear,310,2013-03-26 13:53:00
9:53 AM,24.1,16.0,71,30.38,10.0,NW,10.4,-,N/A,,Clear,310,2013-03-26 14:53:00
10:53 AM,27.0,18.0,69,30.38,10.0,NW,9.2,-,N/A,,Clear,310,2013-03-26 15:53:00
11:53 AM,30.0,19.9,66,30.37,10.0,WNW,6.9,-,N/A,,Clear,300,2013-03-26 16:53:00
12:53 PM,33.1,19.9,59,30.36,10.0,NNW,3.5,-,N/A,,Partly Cloudy,340,2013-03-26 17:53:00
1:53 PM,35.1,19.9,54,30.35,10.0,SSW,6.9,-,N/A,,Clear,210,2013-03-26 18:53:00
2:53 PM,34.0,19.9,56,30.34,10.0,SW,5.8,-,N/A,,Clear,220,2013-03-26 19:53:00
3:53 PM,35.1,19.0,52,30.32,10.0,Variable,5.8,-,N/A,,Clear,0,2013-03-26 20:53:00
4:53 PM,35.1,19.0,52,30.31,10.0,Variable,5.8,-,N/A,,Clear,0,2013-03-26 21:53:00
5:53 PM,35.1,19.9,54,30.31,10.0,SSW,6.9,-,N/A,,Clear,200,2013-03-26 22:53:00
6:53 PM,33.1,21.0,61,30.31,10.0,South,5.8,-,N/A,,Clear,180,2013-03-26 23:53:00
7:53 PM,30.0,21.9,72,30.31,10.0,South,5.8,-,N/A,,Clear,180,2013-03-27 00:53:00
8:53 PM,28.0,21.9,78,30.32,10.0,South,5.8,-,N/A,,Clear,170,2013-03-27 01:53:00
9:53 PM,27.0,21.0,78,30.32,10.0,SSE,3.5,-,N/A,,Clear,160,2013-03-27 02:53:00
10:53 PM,27.0,21.9,81,30.34,10.0,South,3.5,-,N/A,,Clear,190,2013-03-27 03:53:00
11:53 PM,27.0,21.0,78,30.34,10.0,SSE,3.5,-,N/A,,Clear,150,2013-03-27 04:53:00